{"data":{"norad_id":57348,"intl_designator":"2023-099W","name":"STARLINK-6372","alt_names":[],"object_type":"PAYLOAD","status":"ACTIVE","operator":null,"country":"US","launch_date":"2023-07-16","launch_site_code":"AFETR","launch_vehicle":null,"mission":null,"orbit_class":"UNKNOWN","rcs_meters":null,"size_class":null,"mass_kg":null,"dimensions":null,"purposes":["comms"],"wikipedia_slug":null,"has_3d_model":false,"image_url":null,"decayed_at":null,"tle_current":{"epoch":"2026-05-24T19:04:34.474944Z","epoch_age_seconds":85989,"freshness":"FRESH","line1":"1 57348U 23099W   26144.79484346 -.00000010  00000+0  91652-5 0  9991","line2":"2 57348  43.0021 179.3663 0000843 278.8924  81.1832 15.27575966157750","mean_motion":15.27575966,"eccentricity":8.43e-5,"inclination_deg":43.0021,"raan_deg":179.3663,"arg_perigee_deg":278.8924,"mean_anomaly_deg":81.1832,"bstar":9.1652e-6,"rev_number":15775,"period_min":94.266997651886,"perigee_km":482.48277630728,"apogee_km":483.63957431964,"semimajor_km":6861.1981753135,"source":"CELESTRAK","updated_at":"2026-05-25T13:38:18.289812Z"}}}